User: anonymous   Login
Location: Caltech
(34.1382°N, 118.1253°W)
Time: 01:55:05
(UTC-08:00)
Language:

Lacrosse 5 rocket - Orbit

View from above orbital plane
View from above orbital plane
View from above satellite
View from above satellite

Ground track
Ground track

The orbit data is extracted from the following two-line orbital elements,

1 28647U 05016B   16345.23777596 0.00000600  00000-0  35385-4 0    01
2 28647  56.9980  62.5595 0124921 348.5611  11.4388 15.04701141    04
Epoch (UTC): 10 December 2016 05:42:23
Eccentricity: 0.0124921
inclination: 56.9980°
perigee height: 466 km
apogee height: 639 km
right ascension of ascending node: 62.5595°
argument of perigee: 348.5611°
revolutions per day: 15.04701141
mean anomaly at epoch: 11.4388°
orbit number at epoch: 0

The dashed part of the orbit path shows where the satellite is in the earth's shadow,  

DLR